| time (UTC) | temp F | wind direction | speed MPH | gust MPH | rain 1hr in | rain 24hr in | rain mn in | humidity % | barometer mb |
| 20260904232539 | 73 | 289 | 7.0 | 14.0 | 0.00 | 0.00 | 0.00 | 36 | 972.9 |
| 20260904232049 | 73 | 289 | 2.0 | 13.0 | 0.00 | 0.00 | 0.00 | 37 | 972.9 |
| 20260904232040 | 73 | 286 | 11.0 | 14.0 | 0.00 | 0.00 | 0.00 | 35 | 973.0 |
| 20260904231048 | 74 | 257 | 6.0 | 11.0 | 0.00 | 0.00 | 0.00 | 36 | 972.8 |
| 20260904231040 | 73 | 266 | 5.0 | 13.0 | 0.00 | 0.00 | 0.00 | 35 | 972.9 |
| 20260904230039 | 74 | 233 | 5.0 | 11.0 | 0.00 | 0.00 | 0.00 | 35 | 972.8 |
| 20260904225538 | 74 | 288 | 4.0 | 12.0 | 0.00 | 0.00 | 0.00 | 36 | 972.8 |
| 20260904225040 | 74 | 282 | 6.0 | 12.0 | 0.00 | 0.00 | 0.00 | 36 | 972.5 |
| 20260904224546 | 74 | 257 | 8.0 | 13.0 | 0.00 | 0.00 | 0.00 | 36 | 972.5 |
| 20260904224538 | 74 | 0 | 1.0 | 13.0 | 0.00 | 0.00 | 0.00 | 37 | 972.4 |
| 20260904223536 | 74 | 285 | 6.0 | 13.0 | 0.00 | 0.00 | 0.00 | 35 | 972.3 |
| 20260904223038 | 74 | 338 | 6.0 | 13.0 | 0.00 | 0.00 | 0.00 | 34 | 972.3 |
| 20260904222537 | 74 | 307 | 4.0 | 9.0 | 0.00 | 0.00 | 0.00 | 35 | 972.3 |
| 20260904222046 | 74 | 314 | 6.0 | 10.0 | 0.00 | 0.00 | 0.00 | 34 | 972.3 |
| 20260904222038 | 74 | 355 | 3.0 | 10.0 | 0.00 | 0.00 | 0.00 | 35 | 972.3 |
| 20260904221042 | 74 | 250 | 4.0 | 10.0 | 0.00 | 0.00 | 0.00 | 36 | 972.2 |
| 20260904220536 | 74 | 292 | 4.0 | 12.0 | 0.00 | 0.00 | 0.00 | 36 | 972.2 |
| 20260904220046 | 73 | 312 | 6.0 | 12.0 | 0.00 | 0.00 | 0.00 | 35 | 972.2 |
| 20260904220037 | 74 | 289 | 3.0 | 12.0 | 0.00 | 0.00 | 0.00 | 37 | 972.2 |
| 20260904215037 | 73 | 285 | 3.0 | 12.0 | 0.00 | 0.00 | 0.00 | 36 | 972.2 |
| 20260904214536 | 73 | 285 | 6.0 | 12.0 | 0.00 | 0.00 | 0.00 | 36 | 972.1 |
| 20260904214046 | 73 | 302 | 10.0 | 17.0 | 0.00 | 0.00 | 0.00 | 36 | 972.0 |
| 20260904214038 | 73 | 293 | 7.0 | 17.0 | 0.00 | 0.00 | 0.00 | 35 | 972.0 |
| 20260904213037 | 74 | 289 | 10.0 | 16.0 | 0.00 | 0.00 | 0.00 | 36 | 972.1 |
| 20260904212536 | 74 | 269 | 5.0 | 14.0 | 0.00 | 0.00 | 0.00 | 35 | 972.0 |
| 20260904212036 | 73 | 269 | 5.0 | 14.0 | 0.00 | 0.00 | 0.00 | 37 | 972.0 |
| 20260904211535 | 73 | 321 | 4.0 | 13.0 | 0.00 | 0.00 | 0.00 | 37 | 971.8 |
| 20260904211045 | 73 | 313 | 6.0 | 12.0 | 0.00 | 0.00 | 0.00 | 37 | 971.8 |
| 20260904211036 | 73 | 314 | 7.0 | 13.0 | 0.00 | 0.00 | 0.00 | 37 | 971.8 |
| 20260904210659 | 73 | 314 | 9.0 | 13.0 | 0.00 | 0.00 | 0.00 | 38 | 971.6 |
| 20260904205535 | 73 | 296 | 4.0 | 14.0 | 0.00 | 0.00 | 0.00 | 38 | 971.6 |
| 20260904205044 | 72 | 10 | 2.0 | 13.0 | 0.00 | 0.00 | 0.00 | 39 | 971.7 |
| 20260904205037 | 73 | 314 | 8.0 | 14.0 | 0.00 | 0.00 | 0.00 | 38 | 971.6 |
| 20260904204659 | 72 | 329 | 5.0 | 15.0 | 0.00 | 0.00 | 0.00 | 38 | 971.8 |
| 20260904203534 | 72 | 292 | 5.0 | 15.0 | 0.00 | 0.00 | 0.00 | 39 | 971.8 |
| 20260904203035 | 72 | 283 | 6.0 | 16.0 | 0.00 | 0.00 | 0.00 | 39 | 971.8 |
| 20260904202540 | 71 | 292 | 7.0 | 15.0 | 0.00 | 0.00 | 0.00 | 40 | 971.8 |
| 20260904202534 | 72 | 306 | 7.0 | 16.0 | 0.00 | 0.00 | 0.00 | 40 | 971.9 |
| 20260904201533 | 71 | 306 | 7.0 | 15.0 | 0.00 | 0.00 | 0.00 | 39 | 971.8 |
| 20260904201037 | 71 | 262 | 6.0 | 12.0 | 0.00 | 0.00 | 0.00 | 41 | 971.9 |
| 20260904200540 | 69 | 324 | 4.0 | 15.0 | 0.00 | 0.00 | 0.00 | 41 | 971.8 |
| 20260904200534 | 70 | 261 | 4.0 | 15.0 | 0.00 | 0.00 | 0.00 | 42 | 971.8 |
| 20260904195532 | 69 | 8 | 5.0 | 19.0 | 0.00 | 0.00 | 0.00 | 40 | 971.8 |
| 20260904195034 | 69 | 317 | 9.0 | 19.0 | 0.00 | 0.00 | 0.00 | 40 | 971.9 |
| 20260904194532 | 68 | 324 | 7.0 | 14.0 | 0.00 | 0.00 | 0.00 | 42 | 971.9 |
| 20260904194041 | 68 | 295 | 2.0 | 14.0 | 0.00 | 0.00 | 0.00 | 44 | 971.8 |
| 20260904193532 | 67 | 329 | 6.0 | 13.0 | 0.00 | 0.00 | 0.00 | 42 | 971.9 |
| 20260904193034 | 66 | 319 | 2.0 | 13.0 | 0.00 | 0.00 | 0.00 | 45 | 971.9 |
| 20260904192533 | 65 | 348 | 0.0 | 14.0 | 0.00 | 0.00 | 0.00 | 47 | 971.7 |
| 20260904192042 | 64 | 334 | 0.0 | 12.0 | 0.00 | 0.00 | 0.00 | 48 | 971.8 |
| 20260904192034 | 64 | 314 | 6.0 | 14.0 | 0.00 | 0.00 | 0.00 | 46 | 971.7 |
| 20260904191042 | 63 | 327 | 3.0 | 13.0 | 0.00 | 0.00 | 0.00 | 48 | 971.7 |
| 20260904190531 | 62 | 283 | 2.0 | 15.0 | 0.00 | 0.00 | 0.00 | 50 | 971.7 |
| 20260904190037 | 62 | 317 | 6.0 | 15.0 | 0.00 | 0.00 | 0.00 | 48 | 971.8 |
| 20260904185531 | 62 | 303 | 4.0 | 16.0 | 0.00 | 0.00 | 0.00 | 48 | 971.8 |
| 20260904185038 | 63 | 255 | 9.0 | 16.0 | 0.00 | 0.00 | 0.00 | 49 | 971.9 |
| 20260904184542 | 63 | 271 | 4.0 | 12.0 | 0.00 | 0.00 | 0.00 | 47 | 971.6 |
| 20260904184532 | 63 | 293 | 3.0 | 12.0 | 0.00 | 0.00 | 0.00 | 48 | 971.6 |
| 20260904183531 | 63 | 289 | 4.0 | 13.0 | 0.00 | 0.00 | 0.00 | 48 | 971.5 |
| 20260904183033 | 63 | 285 | 2.0 | 13.0 | 0.00 | 0.00 | 0.00 | 48 | 971.5 |
| 20260904182531 | 62 | 275 | 0.0 | 14.0 | 0.00 | 0.00 | 0.00 | 50 | 971.5 |
| 20260904182046 | 62 | 296 | 4.0 | 12.0 | 0.00 | 0.00 | 0.00 | 49 | 971.3 |
| 20260904182037 | 62 | 255 | 2.0 | 14.0 | 0.00 | 0.00 | 0.00 | 51 | 971.5 |
| 20260904181038 | 62 | 272 | 3.0 | 11.0 | 0.00 | 0.00 | 0.00 | 51 | 971.1 |
| 20260904180530 | 61 | 330 | 2.0 | 11.0 | 0.00 | 0.00 | 0.00 | 52 | 970.4 |
| 20260904180031 | 61 | 288 | 3.0 | 12.0 | 0.00 | 0.00 | 0.00 | 52 | 970.6 |
| 20260904175537 | 60 | 290 | 0.0 | 7.0 | 0.00 | 0.00 | 0.00 | 55 | 971.3 |
| 20260904175530 | 60 | 329 | 6.0 | 12.0 | 0.00 | 0.00 | 0.00 | 53 | 970.9 |
| 20260904174529 | 59 | 172 | 0.0 | 2.0 | 0.00 | 0.00 | 0.00 | 58 | 971.3 |
| 20260904174040 | 59 | 268 | 0.0 | 5.0 | 0.00 | 0.00 | 0.00 | 57 | 970.7 |
| 20260904173529 | 58 | 262 | 0.0 | 9.0 | 0.00 | 0.00 | 0.00 | 56 | 970.9 |
| 20260904173034 | 58 | 309 | 0.0 | 12.0 | 0.00 | 0.00 | 0.00 | 56 | 970.9 |
| 20260904172530 | 58 | 300 | 6.0 | 12.0 | 0.00 | 0.00 | 0.00 | 56 | 971.0 |
| 20260904172032 | 58 | 285 | 2.0 | 10.0 | 0.00 | 0.00 | 0.00 | 57 | 970.9 |
| 20260904171528 | 58 | 235 | 1.0 | 4.0 | 0.00 | 0.00 | 0.00 | 59 | 970.9 |
| 20260904171035 | 57 | 252 | 0.0 | 7.0 | 0.00 | 0.00 | 0.00 | 63 | 970.4 |
| 20260904170528 | 56 | 317 | 0.0 | 7.0 | 0.00 | 0.00 | 0.00 | 62 | 970.2 |
| 20260904170032 | 56 | 0 | 0.0 | 10.0 | 0.00 | 0.00 | 0.00 | 64 | 970.0 |
| 20260904165528 | 55 | 13 | 1.0 | 10.0 | 0.00 | 0.00 | 0.00 | 65 | 969.7 |
| 20260904165035 | 55 | 4 | 3.0 | 10.0 | 0.00 | 0.00 | 0.00 | 65 | 970.0 |
| 20260904164528 | 55 | 319 | 0.0 | 1.0 | 0.00 | 0.00 | 0.00 | 65 | 970.3 |
| 20260904164030 | 54 | 250 | 0.0 | 4.0 | 0.00 | 0.00 | 0.00 | 65 | 970.6 |
| 20260904163527 | 54 | 250 | 1.0 | 6.0 | 0.00 | 0.00 | 0.00 | 65 | 970.7 |
| 20260904163031 | 54 | 248 | 0.0 | 6.0 | 0.00 | 0.00 | 0.00 | 66 | 971.0 |
| 20260904162527 | 54 | 266 | 0.0 | 4.0 | 0.00 | 0.00 | 0.00 | 66 | 970.7 |
| 20260904162039 | 53 | 0 | 0.0 | 5.0 | 0.00 | 0.00 | 0.00 | 67 | 970.4 |
| 20260904162031 | 53 | 334 | 0.0 | 3.0 | 0.00 | 0.00 | 0.00 | 67 | 970.6 |
| 20260904161044 | 53 | 305 | 0.0 | 6.0 | 0.00 | 0.00 | 0.00 | 69 | 970.8 |
| 20260904161034 | 53 | 7 | 1.0 | 5.0 | 0.00 | 0.00 | 0.00 | 67 | 970.4 |
| 20260904160033 | 52 | 285 | 1.0 | 6.0 | 0.00 | 0.00 | 0.00 | 71 | 970.6 |
| 20260904155534 | 52 | 257 | 1.0 | 7.0 | 0.00 | 0.00 | 0.00 | 72 | 970.7 |
| 20260904155527 | 52 | 231 | 1.0 | 7.0 | 0.00 | 0.00 | 0.00 | 72 | 970.7 |
| 20260904154526 | 52 | 251 | 0.0 | 4.0 | 0.00 | 0.00 | 0.00 | 73 | 970.6 |
| 20260904154041 | 51 | 224 | 1.0 | 5.0 | 0.00 | 0.00 | 0.00 | 75 | 970.7 |
| 20260904154032 | 51 | 261 | 1.0 | 5.0 | 0.00 | 0.00 | 0.00 | 74 | 970.8 |
| 20260904153652 | 51 | 188 | 0.0 | 4.0 | 0.00 | 0.00 | 0.00 | 76 | 970.6 |
| 20260904152526 | 51 | 186 | 0.0 | 3.0 | 0.00 | 0.00 | 0.00 | 76 | 970.2 |
| 20260904152032 | 50 | 299 | 1.0 | 6.0 | 0.00 | 0.00 | 0.00 | 78 | 969.7 |
| 20260904151525 | 50 | 299 | 1.0 | 6.0 | 0.00 | 0.00 | 0.00 | 77 | 969.8 |
| 20260904151033 | 50 | 295 | 0.0 | 5.0 | 0.00 | 0.00 | 0.00 | 77 | 970.1 |
| 20260904150526 | 50 | 247 | 1.0 | 5.0 | 0.00 | 0.00 | 0.00 | 77 | 970.2 |
| 20260904150039 | 50 | 257 | 2.0 | 6.0 | 0.00 | 0.00 | 0.00 | 77 | 970.0 |
| 20260904150030 | 50 | 247 | 1.0 | 6.0 | 0.00 | 0.00 | 0.00 | 77 | 970.1 |
| 20260904145041 | 49 | 286 | 1.0 | 5.0 | 0.00 | 0.00 | 0.00 | 78 | 969.4 |
| 20260904145031 | 49 | 227 | 1.0 | 5.0 | 0.00 | 0.00 | 0.00 | 78 | 970.3 |
| 20260904144651 | 49 | 166 | 1.0 | 3.0 | 0.00 | 0.00 | 0.00 | 79 | 969.5 |
| 20260904143525 | 49 | 162 | 0.0 | 7.0 | 0.00 | 0.00 | 0.00 | 79 | 969.6 |
| 20260904143035 | 49 | 159 | 0.0 | 7.0 | 0.00 | 0.00 | 0.00 | 80 | 969.5 |
| 20260904142524 | 48 | 296 | 2.0 | 7.0 | 0.00 | 0.00 | 0.00 | 80 | 968.8 |
| 20260904142029 | 48 | 200 | 0.0 | 7.0 | 0.00 | 0.00 | 0.00 | 81 | 969.2 |
| 20260904141524 | 48 | 166 | 2.0 | 7.0 | 0.00 | 0.00 | 0.00 | 81 | 969.4 |
| 20260904141034 | 48 | 0 | 4.0 | 6.0 | 0.00 | 0.00 | 0.00 | 81 | 968.6 |
| 20260904140524 | 47 | 206 | 0.0 | 5.0 | 0.00 | 0.00 | 0.00 | 81 | 969.1 |
| 20260904140035 | 47 | 204 | 0.0 | 6.0 | 0.00 | 0.00 | 0.00 | 82 | 969.6 |
| 20260904135524 | 47 | 127 | 2.0 | 6.0 | 0.00 | 0.00 | 0.00 | 82 | 969.5 |
| 20260904135033 | 47 | 303 | 2.0 | 5.0 | 0.00 | 0.00 | 0.00 | 82 | 969.0 |
| 20260904134523 | 47 | 271 | 2.0 | 5.0 | 0.00 | 0.00 | 0.00 | 82 | 969.6 |
| 20260904134034 | 47 | 228 | 1.0 | 3.0 | 0.00 | 0.00 | 0.00 | 83 | 969.6 |
| 20260904133530 | 46 | 226 | 0.0 | 3.0 | 0.00 | 0.00 | 0.00 | 83 | 969.4 |
| 20260904133523 | 46 | 226 | 2.0 | 3.0 | 0.00 | 0.00 | 0.00 | 83 | 969.5 |
| 20260904132523 | 46 | 235 | 0.0 | 0.0 | 0.00 | 0.00 | 0.00 | 83 | 969.2 |
| 20260904132031 | 46 | 213 | 0.0 | 4.0 | 0.00 | 0.00 | 0.00 | 83 | 969.1 |
| 20260904131522 | 46 | 209 | 0.0 | 4.0 | 0.00 | 0.00 | 0.00 | 83 | 969.3 |
| 20260904131042 | 46 | 250 | 0.0 | 0.0 | 0.00 | 0.00 | 0.00 | 83 | 969.0 |
| 20260904131032 | 46 | 210 | 2.0 | 4.0 | 0.00 | 0.00 | 0.00 | 83 | 969.2 |
| 20260904130033 | 46 | 250 | 0.0 | 0.0 | 0.00 | 0.00 | 0.00 | 83 | 968.7 |
| 20260904125522 | 46 | 250 | 0.0 | 0.0 | 0.00 | 0.00 | 0.00 | 83 | 968.8 |
| 20260904125032 | 46 | 250 | 0.0 | 2.0 | 0.00 | 0.00 | 0.00 | 83 | 968.8 |
| 20260904124521 | 46 | 250 | 0.0 | 2.0 | 0.00 | 0.00 | 0.00 | 83 | 968.8 |
| 20260904124029 | 46 | 250 | 0.0 | 1.0 | 0.00 | 0.00 | 0.00 | 83 | 968.8 |
| 20260904123522 | 46 | 250 | 0.0 | 3.0 | 0.00 | 0.00 | 0.00 | 82 | 968.8 |
| 20260904123042 | 46 | 251 | 0.0 | 1.0 | 0.00 | 0.00 | 0.00 | 82 | 968.7 |
| 20260904123032 | 46 | 250 | 0.0 | 3.0 | 0.00 | 0.00 | 0.00 | 82 | 968.6 |
| 20260904122033 | 46 | 279 | 0.0 | 2.0 | 0.00 | 0.00 | 0.00 | 82 | 968.5 |
| 20260904121522 | 46 | 279 | 0.0 | 3.0 | 0.00 | 0.00 | 0.00 | 81 | 968.3 |
| 20260904121032 | 46 | 279 | 1.0 | 6.0 | 0.00 | 0.00 | 0.00 | 81 | 968.3 |
| 20260904120521 | 46 | 281 | 0.0 | 6.0 | 0.00 | 0.00 | 0.00 | 81 | 968.6 |
| 20260904120031 | 46 | 274 | 1.0 | 5.0 | 0.00 | 0.00 | 0.00 | 80 | 968.5 |
| 20260904115521 | 46 | 237 | 0.0 | 3.0 | 0.00 | 0.00 | 0.00 | 79 | 968.6 |
| 20260904115044 | 46 | 228 | 0.0 | 2.0 | 0.00 | 0.00 | 0.00 | 78 | 968.3 |
| 20260904115033 | 46 | 228 | 0.0 | 1.0 | 0.00 | 0.00 | 0.00 | 79 | 968.6 |
| 20260904114031 | 46 | 228 | 0.0 | 3.0 | 0.00 | 0.00 | 0.00 | 78 | 968.5 |
| 20260904113520 | 47 | 227 | 0.0 | 4.0 | 0.00 | 0.00 | 0.00 | 78 | 968.5 |
| 20260904113031 | 47 | 221 | 0.0 | 5.0 | 0.00 | 0.00 | 0.00 | 77 | 968.3 |
| 20260904112521 | 47 | 247 | 0.0 | 5.0 | 0.00 | 0.00 | 0.00 | 77 | 968.3 |
| 20260904112030 | 47 | 216 | 0.0 | 5.0 | 0.00 | 0.00 | 0.00 | 77 | 968.5 |
| 20260904111519 | 46 | 203 | 1.0 | 5.0 | 0.00 | 0.00 | 0.00 | 77 | 968.3 |
| 20260904111031 | 46 | 203 | 0.0 | 4.0 | 0.00 | 0.00 | 0.00 | 77 | 968.1 |
| 20260904110532 | 46 | 200 | 1.0 | 3.0 | 0.00 | 0.00 | 0.00 | 77 | 968.1 |
| 20260904110518 | 46 | 200 | 1.0 | 3.0 | 0.00 | 0.00 | 0.00 | 77 | 968.2 |
| 20260904105645 | 46 | 202 | 0.0 | 4.0 | 0.00 | 0.00 | 0.00 | 76 | 968.0 |
| 20260904105519 | 46 | 200 | 0.0 | 1.0 | 0.00 | 0.00 | 0.00 | 77 | 968.0 |
| 20260904105036 | 46 | 202 | 1.0 | 6.0 | 0.00 | 0.00 | 0.00 | 77 | 968.1 |
| 20260904105027 | 47 | 199 | 0.0 | 6.0 | 0.00 | 0.00 | 0.00 | 77 | 968.0 |
| 20260904103520 | 47 | 197 | 0.0 | 0.0 | 0.00 | 0.00 | 0.00 | 76 | 968.1 |
| 20260904103029 | 47 | 196 | 0.0 | 0.0 | 0.00 | 0.00 | 0.00 | 75 | 968.2 |
| 20260904102529 | 47 | 196 | 0.0 | 0.0 | 0.00 | 0.00 | 0.00 | 74 | 968.3 |
| 20260904102520 | 47 | 196 | 0.0 | 0.0 | 0.00 | 0.00 | 0.00 | 75 | 968.2 |
| 20260904102156 | 47 | 196 | 0.0 | 0.0 | 0.00 | 0.00 | 0.00 | 74 | 968.2 |
| 20260904101030 | 47 | 196 | 0.0 | 0.0 | 0.00 | 0.00 | 0.00 | 73 | 968.2 |
| 20260904100517 | 47 | 196 | 0.0 | 1.0 | 0.00 | 0.00 | 0.00 | 73 | 968.2 |
| 20260904100034 | 47 | 197 | 0.0 | 3.0 | 0.00 | 0.00 | 0.00 | 72 | 968.0 |
| 20260904100024 | 47 | 196 | 0.0 | 2.0 | 0.00 | 0.00 | 0.00 | 73 | 968.1 |
| 20260904095032 | 48 | 207 | 0.0 | 3.0 | 0.00 | 0.00 | 0.00 | 72 | 968.1 |
| 20260904094518 | 48 | 223 | 0.0 | 1.0 | 0.00 | 0.00 | 0.00 | 72 | 968.2 |
| 20260904094034 | 48 | 223 | 0.0 | 1.0 | 0.00 | 0.00 | 0.00 | 71 | 968.5 |
| 20260904094024 | 48 | 223 | 0.0 | 1.0 | 0.00 | 0.00 | 0.00 | 71 | 968.5 |
| 20260904093027 | 49 | 223 | 0.0 | 0.0 | 0.00 | 0.00 | 0.00 | 71 | 968.3 |
| 20260904092517 | 49 | 223 | 0.0 | 3.0 | 0.00 | 0.00 | 0.00 | 71 | 968.3 |
| 20260904092028 | 49 | 223 | 0.0 | 3.0 | 0.00 | 0.00 | 0.00 | 71 | 968.3 |
| 20260904091516 | 49 | 224 | 0.0 | 1.0 | 0.00 | 0.00 | 0.00 | 71 | 968.2 |
| 20260904091035 | 49 | 240 | 0.0 | 3.0 | 0.00 | 0.00 | 0.00 | 71 | 968.2 |
| 20260904091027 | 49 | 240 | 0.0 | 3.0 | 0.00 | 0.00 | 0.00 | 71 | 968.2 |
| 20260904090026 | 50 | 247 | 0.0 | 3.0 | 0.00 | 0.00 | 0.00 | 70 | 968.1 |
| 20260904085515 | 50 | 285 | 0.0 | 2.0 | 0.00 | 0.00 | 0.00 | 70 | 968.0 |
| 20260904085023 | 50 | 272 | 0.0 | 1.0 | 0.00 | 0.00 | 0.00 | 68 | 968.1 |
| 20260904084515 | 50 | 172 | 0.0 | 0.0 | 0.00 | 0.00 | 0.00 | 66 | 968.1 |
| 20260904084035 | 50 | 172 | 0.0 | 4.0 | 0.00 | 0.00 | 0.00 | 65 | 968.3 |
| 20260904084025 | 50 | 172 | 0.0 | 4.0 | 0.00 | 0.00 | 0.00 | 66 | 968.2 |
| 20260904083022 | 50 | 172 | 0.0 | 0.0 | 0.00 | 0.00 | 0.00 | 65 | 968.2 |
| 20260904082516 | 51 | 172 | 0.0 | 2.0 | 0.00 | 0.00 | 0.00 | 65 | 968.2 |
| 20260904082025 | 51 | 172 | 0.0 | 2.0 | 0.00 | 0.00 | 0.00 | 64 | 968.1 |
| 20260904081514 | 51 | 172 | 0.0 | 3.0 | 0.00 | 0.00 | 0.00 | 63 | 968.1 |
| 20260904081023 | 51 | 172 | 1.0 | 3.0 | 0.00 | 0.00 | 0.00 | 62 | 968.2 |
| 20260904080514 | 52 | 226 | 0.0 | 2.0 | 0.00 | 0.00 | 0.00 | 61 | 968.2 |
| 20260904080034 | 52 | 214 | 0.0 | 3.0 | 0.00 | 0.00 | 0.00 | 61 | 968.3 |
| 20260904080025 | 52 | 219 | 0.0 | 3.0 | 0.00 | 0.00 | 0.00 | 61 | 968.3 |
| 20260904075021 | 52 | 197 | 0.0 | 3.0 | 0.00 | 0.00 | 0.00 | 60 | 968.3 |
| 20260904074515 | 53 | 195 | 0.0 | 3.0 | 0.00 | 0.00 | 0.00 | 60 | 968.2 |
| 20260904074020 | 53 | 202 | 0.0 | 3.0 | 0.00 | 0.00 | 0.00 | 59 | 968.2 |
| 20260904073515 | 53 | 210 | 0.0 | 1.0 | 0.00 | 0.00 | 0.00 | 59 | 968.2 |
| 20260904073018 | 53 | 210 | 0.0 | 2.0 | 0.00 | 0.00 | 0.00 | 59 | 968.0 |
| 20260904072513 | 53 | 209 | 0.0 | 2.0 | 0.00 | 0.00 | 0.00 | 58 | 968.1 |
| 20260904072033 | 54 | 262 | 0.0 | 1.0 | 0.00 | 0.00 | 0.00 | 58 | 968.3 |
| 20260904072023 | 54 | 233 | 0.0 | 1.0 | 0.00 | 0.00 | 0.00 | 58 | 968.3 |
| 20260904071023 | 55 | 264 | 0.0 | 0.0 | 0.00 | 0.00 | 0.00 | 58 | 968.3 |
| 20260904070520 | 55 | 264 | 0.0 | 0.0 | 0.00 | 0.00 | 0.00 | 56 | 968.1 |
| 20260904070513 | 55 | 264 | 0.0 | 0.0 | 0.00 | 0.00 | 0.00 | 56 | 968.1 |
| 20260904065513 | 55 | 264 | 0.0 | 0.0 | 0.00 | 0.00 | 0.00 | 55 | 968.2 |
| 20260904065014 | 55 | 264 | 0.0 | 0.0 | 0.00 | 0.00 | 0.00 | 55 | 968.2 |
| 20260904064513 | 56 | 264 | 0.0 | 1.0 | 0.00 | 0.00 | 0.00 | 55 | 968.2 |
| 20260904064015 | 56 | 264 | 0.0 | 4.0 | 0.00 | 0.00 | 0.00 | 54 | 968.0 |
| 20260904063513 | 56 | 264 | 0.0 | 4.0 | 0.00 | 0.00 | 0.00 | 54 | 967.9 |
| 20260904063014 | 56 | 206 | 0.0 | 1.0 | 0.00 | 0.00 | 0.00 | 56 | 968.1 |
| 20260904062520 | 56 | 206 | 0.0 | 1.0 | 0.00 | 0.00 | 0.00 | 53 | 968.2 |
| 20260904062513 | 56 | 206 | 0.0 | 1.0 | 0.00 | 0.00 | 0.00 | 53 | 968.1 |
| 20260904061512 | 56 | 206 | 0.0 | 1.0 | 0.00 | 0.00 | 0.00 | 53 | 968.3 |
| 20260904061014 | 56 | 206 | 0.0 | 1.0 | 0.00 | 0.00 | 0.00 | 53 | 968.3 |
| 20260904060511 | 57 | 206 | 0.0 | 5.0 | 0.00 | 0.00 | 0.00 | 53 | 968.3 |
| 20260904060026 | 57 | 207 | 0.0 | 5.0 | 0.00 | 0.00 | 0.00 | 52 | 968.2 |
| 20260904055511 | 56 | 241 | 0.0 | 7.0 | 0.00 | 0.00 | 0.00 | 52 | 968.2 |
| 20260904055015 | 56 | 202 | 0.0 | 7.0 | 0.00 | 0.00 | 0.00 | 53 | 968.2 |
| 20260904054513 | 56 | 238 | 0.0 | 5.0 | 0.00 | 0.00 | 0.00 | 55 | 968.1 |
| 20260904054014 | 56 | 244 | 0.0 | 5.0 | 0.00 | 0.00 | 0.00 | 54 | 967.9 |
| 20260904053011 | 55 | 233 | 0.0 | 1.0 | 0.00 | 0.00 | 0.00 | 56 | 968.1 |
| 20260904052512 | 55 | 233 | 0.0 | 1.0 | 0.00 | 0.00 | 0.00 | 55 | 968.2 |
| 20260904052012 | 56 | 252 | 0.0 | 1.0 | 0.00 | 0.00 | 0.00 | 54 | 968.3 |
| 20260904051511 | 56 | 254 | 0.0 | 0.0 | 0.00 | 0.00 | 0.00 | 54 | 968.5 |
| 20260904051011 | 56 | 254 | 0.0 | 0.0 | 0.00 | 0.00 | 0.00 | 54 | 968.5 |
| 20260904050510 | 56 | 254 | 0.0 | 0.0 | 0.00 | 0.00 | 0.00 | 53 | 968.5 |
| 20260904050012 | 57 | 254 | 0.0 | 1.0 | 0.00 | 0.00 | 0.00 | 53 | 968.5 |
| 20260904045511 | 57 | 255 | 0.0 | 2.0 | 0.00 | 0.00 | 0.00 | 52 | 968.5 |
| 20260904045012 | 58 | 257 | 0.0 | 2.0 | 0.00 | 0.00 | 0.00 | 51 | 968.6 |
| 20260904044509 | 58 | 264 | 0.0 | 0.0 | 0.00 | 0.00 | 0.00 | 50 | 968.3 |
| 20260904044019 | 58 | 264 | 0.0 | 3.0 | 0.00 | 0.00 | 0.00 | 49 | 968.6 |
| 20260904044011 | 58 | 264 | 0.0 | 0.0 | 0.00 | 0.00 | 0.00 | 49 | 968.5 |
| 20260904043013 | 59 | 264 | 0.0 | 7.0 | 0.00 | 0.00 | 0.00 | 48 | 968.5 |
| 20260904042510 | 59 | 224 | 0.0 | 7.0 | 0.00 | 0.00 | 0.00 | 48 | 968.3 |
| 20260904042012 | 59 | 265 | 0.0 | 6.0 | 0.00 | 0.00 | 0.00 | 48 | 968.5 |
| 20260904041509 | 59 | 240 | 1.0 | 6.0 | 0.00 | 0.00 | 0.00 | 48 | 968.6 |
| 20260904041011 | 59 | 230 | 1.0 | 9.0 | 0.00 | 0.00 | 0.00 | 47 | 968.2 |
| 20260904040509 | 59 | 210 | 0.0 | 9.0 | 0.00 | 0.00 | 0.00 | 48 | 968.0 |
| 20260904040010 | 60 | 309 | 0.0 | 2.0 | 0.00 | 0.00 | 0.00 | 50 | 968.0 |
| 20260904035510 | 60 | 309 | 0.0 | 1.0 | 0.00 | 0.00 | 0.00 | 49 | 968.1 |
| 20260904035010 | 60 | 309 | 0.0 | 1.0 | 0.00 | 0.00 | 0.00 | 48 | 968.1 |
| 20260904034510 | 60 | 310 | 0.0 | 1.0 | 0.00 | 0.00 | 0.00 | 48 | 968.1 |
| 20260904034011 | 60 | 310 | 0.0 | 0.0 | 0.00 | 0.00 | 0.00 | 48 | 968.2 |
| 20260904033516 | 61 | 310 | 0.0 | 1.0 | 0.00 | 0.00 | 0.00 | 48 | 968.3 |
| 20260904033508 | 61 | 310 | 0.0 | 0.0 | 0.00 | 0.00 | 0.00 | 47 | 968.3 |
| 20260904033133 | 61 | 309 | 0.0 | 2.0 | 0.00 | 0.00 | 0.00 | 48 | 968.0 |
| 20260904032009 | 61 | 309 | 0.0 | 3.0 | 0.00 | 0.00 | 0.00 | 48 | 968.1 |
| 20260904031515 | 61 | 286 | 1.0 | 5.0 | 0.00 | 0.00 | 0.00 | 47 | 968.1 |
| 20260904031507 | 61 | 310 | 0.0 | 5.0 | 0.00 | 0.00 | 0.00 | 48 | 968.0 |
| 20260904030509 | 62 | 274 | 0.0 | 5.0 | 0.00 | 0.00 | 0.00 | 47 | 968.1 |
| 20260904030017 | 62 | 207 | 0.0 | 1.0 | 0.00 | 0.00 | 0.00 | 47 | 968.3 |
| 20260904025632 | 62 | 204 | 0.0 | 1.0 | 0.00 | 0.00 | 0.00 | 46 | 968.2 |
| 20260904025135 | 62 | 238 | 0.0 | 1.0 | 0.00 | 0.00 | 0.00 | 47 | 968.2 |
| 20260904024015 | 63 | 255 | 0.0 | 4.0 | 0.00 | 0.00 | 0.00 | 47 | 968.0 |
| 20260904024007 | 63 | 233 | 0.0 | 2.0 | 0.00 | 0.00 | 0.00 | 48 | 968.1 |
| 20260904023017 | 64 | 255 | 0.0 | 7.0 | 0.00 | 0.00 | 0.00 | 47 | 967.8 |
| 20260904023009 | 64 | 257 | 1.0 | 4.0 | 0.00 | 0.00 | 0.00 | 47 | 967.9 |
| 20260904022008 | 64 | 258 | 0.0 | 7.0 | 0.00 | 0.00 | 0.00 | 47 | 967.8 |
| 20260904021508 | 64 | 195 | 0.0 | 7.0 | 0.00 | 0.00 | 0.00 | 47 | 967.7 |
| 20260904021014 | 64 | 168 | 0.0 | 5.0 | 0.00 | 0.00 | 0.00 | 48 | 967.5 |
| 20260904021007 | 64 | 254 | 1.0 | 5.0 | 0.00 | 0.00 | 0.00 | 47 | 967.5 |
| 20260904020008 | 64 | 189 | 0.0 | 5.0 | 0.00 | 0.00 | 0.00 | 48 | 967.5 |
| 20260904015506 | 64 | 189 | 1.0 | 5.0 | 0.00 | 0.00 | 0.00 | 48 | 967.5 |
| 20260904015008 | 64 | 196 | 0.0 | 1.0 | 0.00 | 0.00 | 0.00 | 48 | 967.5 |
| 20260904014506 | 65 | 247 | 0.0 | 1.0 | 0.00 | 0.00 | 0.00 | 48 | 967.6 |
| 20260904014008 | 65 | 258 | 0.0 | 0.0 | 0.00 | 0.00 | 0.00 | 48 | 967.5 |
| 20260904013505 | 65 | 258 | 0.0 | 0.0 | 0.00 | 0.00 | 0.00 | 48 | 967.6 |
| 20260904013007 | 65 | 258 | 0.0 | 3.0 | 0.00 | 0.00 | 0.00 | 47 | 967.7 |
| 20260904012505 | 65 | 259 | 0.0 | 6.0 | 0.00 | 0.00 | 0.00 | 46 | 967.5 |
| 20260904012006 | 65 | 243 | 2.0 | 6.0 | 0.00 | 0.00 | 0.00 | 45 | 967.5 |
| 20260904011504 | 66 | 195 | 0.0 | 5.0 | 0.00 | 0.00 | 0.00 | 45 | 967.5 |
| 20260904011007 | 66 | 199 | 0.0 | 7.0 | 0.00 | 0.00 | 0.00 | 44 | 967.4 |
| 20260904010505 | 66 | 209 | 2.0 | 7.0 | 0.00 | 0.00 | 0.00 | 44 | 967.5 |
| 20260904010008 | 66 | 188 | 2.0 | 10.0 | 0.00 | 0.00 | 0.00 | 44 | 967.5 |
| 20260904005506 | 66 | 195 | 2.0 | 10.0 | 0.00 | 0.00 | 0.00 | 44 | 967.5 |
| 20260904005006 | 66 | 166 | 1.0 | 5.0 | 0.00 | 0.00 | 0.00 | 44 | 967.5 |
| 20260904004504 | 66 | 231 | 0.0 | 12.0 | 0.00 | 0.00 | 0.00 | 44 | 967.5 |
| 20260904004005 | 66 | 247 | 3.0 | 15.0 | 0.00 | 0.00 | 0.00 | 44 | 967.4 |
| 20260904003504 | 67 | 259 | 3.0 | 15.0 | 0.00 | 0.00 | 0.00 | 44 | 967.4 |
| 20260904003005 | 67 | 210 | 2.0 | 15.0 | 0.00 | 0.00 | 0.00 | 44 | 967.4 |
| 20260904002510 | 67 | 231 | 3.0 | 11.0 | 0.00 | 0.00 | 0.00 | 43 | 967.4 |
| 20260904002503 | 67 | 258 | 3.0 | 15.0 | 0.00 | 0.00 | 0.00 | 43 | 967.4 |
| 20260904001504 | 67 | 248 | 3.0 | 13.0 | 0.00 | 0.00 | 0.00 | 42 | 967.2 |
| 20260904001005 | 67 | 254 | 0.0 | 13.0 | 0.00 | 0.00 | 0.00 | 42 | 967.2 |
| 20260904000511 | 68 | 268 | 2.0 | 13.0 | 0.00 | 0.00 | 0.00 | 41 | 967.1 |
| 20260904000504 | 68 | 278 | 4.0 | 13.0 | 0.00 | 0.00 | 0.00 | 42 | 967.2 |
| 20260903235502 | 68 | 241 | 2.0 | 13.0 | 0.00 | 0.00 | 0.00 | 41 | 967.0 |
| 20260903235012 | 69 | 264 | 4.0 | 15.0 | 0.00 | 0.00 | 0.00 | 41 | 967.0 |
| 20260903235004 | 69 | 250 | 3.0 | 13.0 | 0.00 | 0.00 | 0.00 | 41 | 967.0 |
| 20260903234005 | 69 | 295 | 6.0 | 16.0 | 0.00 | 0.00 | 0.00 | 42 | 967.0 |